Wind_Speed
22 21 19 18 18 19 19 19 20 22 22 21 22 22 23 23 23 23 22 22 22 22 24 25 25 24 24 23 23 24 24 24 24 23 23 23 23 23 23 24 25 25 25 26 27 27 28 28 29 29 29 29 30 30 30 30 31 32 32 33 33 34 35 35 36 37 38 38 39 40 40 41 41 42 43 44 44 44 43 43 44 45 45 45 46
21 19 18 18 18 18 19 20 20 20 20 19 19 20 21 20 20 19 19 18 17 16 17 18 19 21 21 21 22 22 22 21 21 21 21 21 21 22 23 23 24 24 24 25 25 26 26 26 26 27 27 27 27 27 27 27 28 29 29 29 30 30 31 32 33 34 34 35 36 36 38 39 41 42 43 43 43 43 43 43 43 44 44 45 45
19 17 17 18 18 18 19 19 18 18 18 18 18 18 18 17 16 16 15 15 15 15 15 15 16 17 18 19 19 19 19 19 19 20 20 20 21 21 21 22 22 22 23 23 23 23 23 23 24 25 25 25 26 26 26 26 27 28 28 28 28 29 30 30 31 31 32 32 33 34 35 36 38 39 40 41 42 42 42 42 42 42 43 44 45
16 16 16 17 17 19 20 19 17 17 17 16 16 15 15 14 14 13 14 14 14 14 14 15 15 15 16 17 17 17 17 18 19 19 19 19 19 19 19 20 20 21 21 21 22 22 23 23 24 25 26 26 26 27 27 28 29 29 29 30 30 31 31 32 32 32 33 33 34 35 35 36 37 37 38 39 39 40 40 41 41 41 42 43 44
15 14 14 15 15 16 16 15 13 14 14 14 13 12 12 12 12 12 13 13 13 13 13 13 13 14 15 15 16 16 17 17 17 18 18 18 18 18 18 19 19 20 21 22 22 23 24 24 25 26 27 28 28 28 28 29 30 30 30 31 32 32 32 33 33 33 34 35 35 36 37 38 38 38 39 39 39 39 39 39 40 40 41 42 43
12 12 12 12 13 11 8 9 9 10 10 10 10 10 11 11 11 12 12 12 11 12 12 12 13 13 14 14 15 15 15 15 16 16 17 17 17 18 19 20 21 22 23 24 24 25 25 26 27 27 28 29 29 29 29 30 31 31 31 32 33 33 33 34 34 34 34 35 36 37 38 39 39 39 40 40 40 40 40 40 40 40 41 41 42
10 10 9 10 11 9 5 6 6 6 7 7 8 9 10 10 10 11 11 10 10 11 11 11 12 12 12 12 13 13 14 15 15 16 17 18 19 20 21 22 23 24 25 25 26 26 27 27 27 28 29 30 30 31 31 32 32 33 33 34 34 34 35 35 35 34 35 36 36 37 38 39 40 40 40 41 41 41 42 41 41 41 41 42 43
9 8 6 6 7 5 4 4 4 4 5 6 8 9 9 9 9 9 9 9 9 9 10 10 10 10 10 11 12 13 14 15 17 18 19 20 21 22 23 24 25 26 26 27 27 28 28 28 29 30 30 31 32 33 33 34 34 34 35 35 34 35 35 35 36 35 35 36 37 37 38 39 40 40 41 41 42 42 41 42 43 43 43 45 46
7 6 5 4 4 3 2 3 4 4 5 6 7 7 7 7 7 7 8 8 8 8 8 9 9 10 11 12 13 15 16 17 18 20 21 21 22 23 24 24 25 26 27 28 28 29 30 30 31 31 32 33 34 35 35 35 35 35 35 35 35 34 35 35 35 35 35 36 36 37 38 39 40 41 41 41 41 41 41 42 44 45 45 45 46
5 4 3 3 3 3 3 4 4 4 4 4 5 5 5 6 6 6 6 6 7 7 8 9 10 11 12 14 15 16 17 19 20 21 22 22 23 23 23 24 25 26 28 29 30 30 31 32 33 34 34 35 35 36 36 36 36 35 34 34 34 34 34 34 35 35 35 35 36 37 37 39 40 41 40 40 40 40 41 42 45 46 45 46 47
3 2 2 2 3 3 4 3 3 3 2 3 3 4 4 4 4 5 5 5 7 8 9 10 11 13 14 15 16 18 19 20 21 21 22 22 23 23 24 25 26 27 29 30 31 32 33 34 35 35 35 36 36 37 37 36 36 35 34 33 33 33 34 34 35 36 37 37 37 38 39 40 41 42 41 40 40 41 41 42 44 45 45 46 47
2 2 2 2 2 3 2 2 1 2 2 2 2 3 3 3 4 4 6 7 8 9 11 12 13 15 16 17 18 19 19 19 20 21 22 22 23 24 25 26 27 29 30 32 33 34 35 36 36 37 37 37 37 37 36 35 35 35 35 35 35 36 36 36 37 38 39 40 41 41 42 43 45 44 43 43 43 43 43 43 44 45 45 46 47
1 1 0 1 1 2 2 2 2 2 2 2 3 3 4 4 5 6 8 9 10 12 13 14 16 17 17 18 18 19 19 20 20 21 22 23 24 25 27 28 29 30 31 32 33 34 36 37 38 38 38 38 37 36 35 35 35 36 37 37 38 39 39 40 41 42 43 44 45 46 47 48 49 48 48 48 48 47 46 46 46 46 46 47 48
3 2 2 2 2 3 2 2 3 4 4 4 4 4 5 6 7 9 10 11 12 14 15 16 16 17 17 18 18 19 20 21 21 22 23 25 26 28 28 29 30 31 32 33 34 35 36 37 38 39 39 38 37 36 36 36 38 38 39 40 41 42 43 43 44 46 47 49 50 51 52 53 53 52 52 52 52 51 50 50 50 49 49 48 49
4 4 4 3 4 4 4 5 5 6 6 6 6 6 7 8 9 10 11 13 13 14 15 16 16 17 18 19 20 21 21 22 23 24 25 26 28 29 30 31 32 33 33 34 35 36 36 37 38 38 38 38 37 37 38 39 40 41 42 43 44 45 46 47 48 49 51 52 53 54 55 56 56 56 56 56 55 55 54 54 53 53 52 50 50
5 5 5 5 6 7 7 7 8 8 7 7 7 8 9 10 11 12 12 13 14 14 16 17 18 19 21 21 21 22 22 23 24 25 26 27 28 29 30 31 32 33 34 35 35 36 36 36 37 37 37 38 38 39 41 42 43 44 45 47 48 49 50 51 51 51 52 53 54 55 55 56 57 58 58 57 57 57 57 57 56 55 54 53 52
6 6 7 8 9 10 10 9 9 8 8 7 8 9 10 11 11 12 13 13 15 16 18 19 20 21 21 21 22 22 23 24 25 26 27 28 29 30 31 32 34 34 35 35 35 36 36 36 36 36 37 38 39 41 42 44 45 46 47 48 49 50 51 52 52 52 53 53 53 54 54 56 57 58 58 57 57 57 57 57 57 57 56 56 56
8 9 10 11 11 11 11 10 9 8 8 9 10 11 11 11 12 13 14 15 17 19 20 20 20 21 21 22 22 23 24 25 26 27 28 29 30 32 33 34 34 35 35 35 35 35 35 35 35 35 36 37 39 41 43 44 45 46 47 48 49 50 51 51 52 51 52 52 52 52 54 55 56 57 57 57 56 56 57 58 59 59 59 59 58
12 12 13 12 12 11 10 10 9 9 10 11 11 11 12 12 13 14 16 18 19 19 19 20 20 21 21 22 23 24 25 26 27 28 30 31 32 33 33 33 33 33 33 33 33 33 33 34 34 34 35 37 38 40 42 43 44 46 47 47 48 49 49 50 50 51 52 52 52 52 53 54 55 55 56 57 57 56 57 59 59 60 60 60 59
14 14 13 13 12 11 10 10 10 10 11 12 12 12 13 14 15 16 18 19 19 19 19 20 20 21 22 23 24 25 26 27 28 30 31 31 32 32 32 32 32 32 31 31 31 31 32 33 34 35 36 37 39 40 42 43 44 46 47 47 48 48 48 48 49 49 49 49 49 49 49 50 50 52 53 54 55 56 58 60 60 60 60 60 59
14 14 13 12 11 10 10 9 10 11 12 12 13 13 14 15 16 17 18 18 18 18 19 20 21 22 23 24 25 26 27 28 29 30 30 31 31 31 31 31 30 30 30 30 31 31 32 33 34 35 37 38 39 41 42 43 44 45 46 47 47 47 48 48 47 44 43 42 43 45 47 48 50 51 51 52 53 54 56 58 60 60 60 60 59
14 13 12 12 10 10 9 10 11 12 13 13 14 14 15 16 17 17 17 18 18 19 20 21 22 24 25 25 26 27 27 28 29 30 30 31 30 30 29 29 28 28 29 30 31 32 33 34 35 36 38 39 40 41 42 43 44 45 46 46 47 47 47 45 41 39 39 42 44 47 50 52 53 54 54 54 54 54 53 54 55 58 60 60 60
13 12 11 10 9 8 9 11 12 13 13 13 14 15 15 16 17 17 17 17 18 20 21 22 24 25 25 25 26 27 28 29 30 30 30 29 28 28 27 27 27 28 29 30 32 33 34 35 37 38 39 41 41 42 43 44 44 45 45 46 46 46 43 39 38 39 42 45 48 51 54 55 56 56 56 57 57 56 55 53 53 54 56 58 60
12 11 10 9 8 9 10 11 12 13 13 14 14 15 15 16 16 17 17 18 20 21 22 23 24 25 26 26 27 28 29 29 29 29 28 28 27 27 27 27 28 29 31 32 33 35 36 37 38 39 41 42 42 43 44 44 44 45 45 45 44 41 38 37 39 42 46 49 52 54 57 57 57 56 55 57 57 57 56 55 53 53 53 54 56
11 10 9 8 8 10 11 12 13 13 13 14 14 14 15 16 17 17 18 19 21 22 23 24 25 26 27 28 28 28 29 29 29 28 28 27 27 27 27 28 29 31 32 34 35 36 37 38 39 40 41 42 43 44 44 44 45 45 45 42 38 35 34 37 41 45 49 51 54 57 59 59 58 54 52 52 54 54 54 53 52 51 51 52 52
10 8 8 8 9 10 11 12 13 13 13 13 13 13 14 16 17 17 19 20 21 22 24 25 27 28 28 28 28 28 29 29 28 28 27 27 27 27 28 29 31 32 34 35 36 37 38 38 39 40 41 42 43 44 44 44 45 44 40 35 32 32 34 39 43 47 49 51 55 58 58 56 54 51 48 46 47 47 47 47 48 48 48 50 50
8 8 8 9 10 11 12 13 13 13 12 12 12 13 14 16 17 18 19 20 21 23 25 26 28 29 29 28 28 28 28 28 28 28 27 27 27 28 29 31 33 34 35 36 36 37 38 39 40 40 41 42 43 43 44 45 43 39 33 30 31 33 37 41 43 45 47 51 55 54 51 48 46 44 42 42 42 42 42 42 42 43 43 45 47
8 8 9 10 11 11 12 13 13 12 11 11 12 13 14 16 17 18 19 21 22 24 25 27 28 29 28 28 28 28 28 28 28 28 27 28 28 29 31 32 34 35 36 36 37 37 38 39 40 40 41 41 42 43 45 43 39 33 29 29 32 36 39 41 42 44 47 51 50 44 41 38 36 34 33 34 35 37 38 39 39 40 40 40 41
9 9 10 10 11 12 12 13 13 12 11 11 12 13 14 15 17 18 20 21 23 24 26 27 28 28 28 28 28 28 28 28 28 28 28 28 29 30 32 33 35 35 36 37 37 38 39 40 40 40 41 40 41 44 44 40 34 29 29 31 35 38 40 40 41 43 45 46 42 36 33 32 30 29 28 28 29 30 32 33 35 37 38 38 38
9 10 10 10 11 12 12 13 13 12 11 11 12 13 14 15 17 18 20 21 22 24 26 27 28 28 28 28 28 28 28 28 29 28 29 29 30 31 33 34 35 36 37 38 38 39 40 40 41 41 41 42 43 44 40 35 30 29 31 34 38 39 39 40 41 42 42 40 36 32 30 31 31 31 30 30 30 30 30 30 31 33 35 36 38
9 9 10 10 11 12 12 12 12 12 12 12 12 13 14 15 17 18 20 21 22 24 26 27 28 27 28 29 28 28 28 29 29 29 30 31 31 32 34 35 36 37 38 39 39 39 40 41 41 42 42 43 45 43 37 31 30 31 34 38 39 39 38 39 41 40 38 35 33 31 31 33 35 36 36 35 34 34 34 33 32 32 32 32 35
9 9 10 11 12 12 12 12 12 12 12 12 12 13 14 15 17 18 20 21 23 24 26 27 28 28 29 29 28 28 29 29 30 31 31 31 32 33 34 36 37 38 38 39 39 40 40 41 42 42 43 44 45 41 36 32 32 34 37 39 38 37 37 39 41 38 35 33 32 31 32 34 36 37 38 38 36 36 35 35 34 33 32 32 32
9 10 10 11 11 12 12 12 12 12 12 12 13 13 14 16 17 19 20 21 23 25 26 27 28 28 29 28 28 28 29 30 31 32 32 32 32 33 35 36 37 38 39 39 39 40 41 41 42 43 44 45 45 39 35 34 35 36 38 38 36 36 37 39 40 36 34 33 32 33 33 33 34 35 36 38 38 37 37 37 36 35 33 32 32
9 9 10 11 11 12 12 12 12 11 12 12 13 14 15 16 17 19 20 22 23 25 26 27 27 28 28 28 28 28 29 31 32 33 33 32 33 34 36 37 38 39 39 39 40 40 41 41 42 43 44 46 45 39 36 36 36 35 35 35 35 35 37 38 38 35 33 32 32 33 34 34 34 33 33 35 36 36 37 37 36 36 34 32 32
9 9 10 10 11 11 12 12 12 11 12 13 14 14 15 17 18 19 21 22 23 24 26 27 27 28 28 28 28 28 29 31 33 33 33 33 33 35 36 38 39 39 39 39 39 40 41 41 42 43 46 46 44 40 38 38 36 34 33 34 34 35 35 36 35 33 32 31 31 32 34 35 34 31 30 32 34 34 33 33 33 34 34 33 31
8 9 9 10 11 11 12 12 12 12 12 13 14 15 16 17 18 20 21 22 24 25 26 27 27 28 28 28 28 28 30 32 33 34 34 34 34 36 37 38 39 39 39 39 39 39 40 41 42 43 46 46 43 40 39 39 38 35 34 34 35 35 34 34 32 30 29 28 28 31 33 35 33 31 30 32 33 33 30 27 27 28 30 31 30
8 9 9 10 11 11 12 12 13 13 13 14 15 15 16 18 19 20 21 23 24 25 26 27 27 28 28 27 28 28 30 32 33 34 35 34 35 36 37 38 39 39 38 38 38 39 40 41 42 43 46 46 43 40 40 39 39 38 36 35 35 34 33 32 29 27 26 25 27 30 32 33 33 32 32 32 31 28 25 22 22 22 23 25 27
9 9 10 10 11 12 13 13 13 14 14 15 16 16 17 18 20 21 22 23 24 25 26 27 27 28 28 27 28 29 31 32 33 34 35 35 35 36 37 39 39 38 38 38 38 38 39 41 42 43 46 47 44 41 40 41 41 40 39 39 38 34 31 29 27 24 23 23 25 28 30 33 32 29 28 26 25 24 22 19 19 18 18 19 21
9 10 11 11 12 13 13 14 14 15 16 16 16 17 18 19 20 21 22 23 24 25 26 27 27 28 27 27 28 29 31 33 33 34 35 35 35 36 37 39 39 38 38 38 38 38 39 40 41 43 46 47 45 42 41 42 43 43 43 42 39 34 28 25 23 22 21 22 24 26 30 31 27 25 24 22 21 21 20 18 16 14 13 14 16
10 11 12 12 13 14 14 15 15 16 16 17 17 18 18 19 20 21 22 23 24 25 26 27 27 28 27 27 28 29 31 33 34 34 35 35 35 36 37 39 39 38 38 37 37 37 38 39 41 43 46 47 44 42 41 42 43 44 45 42 37 34 28 22 20 19 20 22 24 25 27 27 24 26 26 22 20 20 19 16 12 10 7 9 11
12 13 13 13 14 14 15 15 16 17 17 18 18 19 19 19 20 21 22 23 24 25 26 27 27 27 27 27 28 29 32 34 34 34 35 35 35 36 38 39 38 38 38 37 37 37 37 39 40 42 45 46 44 42 40 41 44 45 43 39 36 36 30 20 17 18 20 22 23 23 25 25 26 27 26 23 22 22 21 17 12 7 4 4 6
14 14 14 14 14 14 15 15 16 16 17 18 19 19 19 20 20 21 21 22 24 24 26 27 27 28 27 27 28 29 32 33 33 34 35 35 34 36 38 39 38 38 38 37 37 36 37 39 40 41 43 46 45 43 41 41 43 44 40 36 36 37 32 20 16 18 19 22 22 21 24 26 27 26 23 23 24 25 23 19 14 8 2 1 5
14 14 14 14 14 14 14 15 16 16 17 17 19 19 20 20 20 21 21 22 23 24 26 27 27 27 26 27 28 29 32 33 33 35 35 35 34 36 38 38 38 37 37 37 36 36 36 38 39 41 43 45 46 45 43 41 43 45 40 35 35 36 32 20 15 16 17 21 21 19 23 27 27 24 21 23 27 27 23 19 16 10 6 5 7
14 14 14 14 14 14 14 14 15 16 17 17 18 19 20 20 20 21 21 22 23 24 26 26 26 26 26 26 27 29 32 33 34 35 36 35 34 35 37 38 38 37 37 36 36 35 35 36 38 39 41 43 45 46 46 44 44 46 43 37 35 37 32 19 10 13 17 21 20 19 22 25 25 22 20 24 29 30 24 20 18 14 10 10 10
13 13 14 14 14 14 14 14 15 16 17 18 19 20 20 20 20 20 20 21 23 23 25 25 26 25 25 26 27 29 31 32 34 35 36 36 34 35 37 38 38 37 37 37 36 35 34 35 36 37 39 41 44 46 47 46 45 46 43 37 35 38 35 24 13 12 16 19 19 20 21 23 24 22 23 29 32 28 23 20 19 15 12 12 12
13 14 14 14 14 14 14 14 15 16 17 18 19 20 21 20 20 20 20 20 22 23 24 25 25 25 25 26 28 28 30 32 34 35 36 36 35 35 36 37 38 38 37 37 36 34 33 33 34 36 37 39 42 44 46 47 45 46 44 39 36 36 35 30 22 17 17 19 19 19 20 22 23 22 24 30 29 24 22 21 19 16 12 11 10
13 14 14 14 14 14 14 14 15 16 17 18 20 20 20 20 19 19 19 19 21 22 24 25 25 25 25 26 27 28 30 31 33 35 36 36 35 35 35 37 38 38 38 37 36 35 33 32 33 34 36 38 40 42 44 46 46 46 45 42 38 34 32 32 28 23 21 20 19 19 21 23 23 21 23 28 27 23 23 22 20 17 12 10 9
13 14 14 14 14 14 14 14 15 16 16 17 19 20 20 19 18 18 18 19 20 22 24 24 25 25 24 25 26 27 29 31 33 35 35 36 35 34 35 36 37 37 37 37 36 35 33 32 32 33 35 36 38 41 43 45 45 45 46 45 41 36 32 31 29 27 25 23 21 21 23 24 24 22 22 27 26 22 22 23 21 17 12 10 9
13 13 14 13 13 13 13 14 14 15 16 17 18 19 19 18 17 17 17 18 20 22 24 24 24 25 24 25 26 27 29 31 32 34 35 36 35 33 33 35 36 37 37 36 36 35 34 32 32 32 34 36 37 39 41 43 44 44 44 44 44 40 35 32 30 29 27 25 23 23 24 23 23 23 23 26 25 22 20 22 22 17 13 10 8
11 11 12 12 12 12 12 13 14 14 15 17 18 18 18 17 16 16 17 18 19 22 23 23 24 24 23 24 26 27 28 30 32 33 34 35 35 33 33 34 36 36 36 36 35 35 34 32 32 32 33 34 36 38 39 41 42 43 43 43 43 42 38 33 30 29 27 26 25 23 23 22 22 23 23 25 26 21 18 20 21 18 15 12 11
9 10 10 11 12 12 12 12 13 14 15 16 17 17 17 16 16 16 16 18 19 21 23 23 23 24 23 23 25 27 28 30 31 33 34 34 35 33 32 33 35 36 36 35 34 34 33 32 31 31 31 32 33 35 36 38 39 40 42 42 42 41 40 36 32 30 28 28 27 26 24 22 22 22 21 24 26 22 17 19 20 19 16 11 12
Wind_Direction
266 264 263 262 261 258 256 259 256 255 257 258 255 254 257 263 268 273 276 276 275 273 267 262 262 268 275 279 281 282 283 285 286 286 286 286 286 287 286 284 283 283 282 281 281 280 280 280 279 279 278 277 277 276 275 275 275 274 273 272 271 271 270 270 269 269 268 268 268 267 267 267 266 266 265 264 263 263 262 261 261 261 261 262 262
270 268 263 261 258 256 256 258 256 254 256 256 253 254 261 268 272 275 277 279 282 286 282 273 269 273 279 282 284 285 286 286 287 287 287 288 288 287 286 285 285 284 284 283 283 283 283 283 282 281 281 280 279 279 279 279 278 276 275 275 274 274 273 272 271 270 270 270 270 269 269 268 268 267 267 266 266 265 264 263 262 261 261 261 261
269 266 262 260 254 256 260 259 255 253 255 255 257 262 268 272 274 277 278 281 284 286 287 285 282 282 284 285 285 286 287 289 289 289 290 290 289 288 287 288 288 288 287 287 287 287 287 287 287 286 285 285 284 284 284 283 281 280 279 278 277 276 275 274 273 273 272 272 271 270 269 268 267 267 268 268 268 268 267 267 266 264 263 262 261
259 258 258 258 255 262 262 256 251 249 254 258 265 269 272 274 277 281 283 285 287 288 289 291 290 289 287 287 289 290 291 292 292 292 292 291 291 291 292 292 293 293 293 292 293 292 292 292 291 290 289 288 287 287 286 285 283 283 282 281 279 278 278 277 276 275 275 273 272 271 270 269 268 268 268 268 268 269 269 269 269 268 266 264 263
252 254 257 260 263 266 256 245 245 248 255 263 269 274 277 281 284 288 291 293 294 296 297 297 295 293 293 293 294 294 294 294 294 294 295 297 298 299 300 299 298 298 297 296 296 295 294 293 292 291 290 289 288 287 286 285 284 284 283 282 281 280 279 278 277 276 275 274 273 272 272 271 270 270 270 269 269 269 270 270 270 269 268 267 266
247 251 256 262 268 269 250 236 243 250 258 267 274 281 285 290 295 297 300 302 303 303 301 299 297 295 295 294 294 295 296 297 299 302 304 306 306 306 305 303 302 300 299 298 296 295 294 293 292 291 291 290 289 288 287 286 285 285 283 282 281 280 279 278 277 275 274 273 272 272 272 272 271 270 270 269 269 269 269 269 270 270 270 270 268
242 248 256 261 266 271 255 237 244 256 265 276 284 288 292 298 301 303 304 305 305 303 301 298 296 295 296 297 300 303 306 308 310 311 311 310 310 308 306 304 303 301 300 299 298 297 295 294 293 292 292 291 290 289 288 286 285 284 283 281 280 280 278 277 276 275 273 272 272 271 271 271 271 270 269 268 268 267 268 268 268 267 268 267 266
242 252 268 267 265 268 254 240 253 269 284 291 292 294 298 302 302 304 306 305 304 301 300 299 301 305 310 315 317 318 318 317 315 313 312 310 310 308 307 306 305 304 303 302 300 299 298 296 295 293 292 291 289 288 287 285 284 282 281 280 279 278 277 276 276 274 273 272 272 271 271 271 270 270 269 268 268 268 268 267 266 264 263 264 264
247 260 279 286 279 278 284 283 283 294 303 301 298 299 300 304 307 307 307 307 306 305 309 314 320 325 327 327 325 322 319 316 313 312 311 310 310 309 308 307 306 305 304 303 301 300 298 296 295 293 291 290 288 287 285 284 282 281 280 279 278 277 277 276 276 275 274 273 273 272 272 272 271 270 270 269 269 269 268 267 265 264 263 263 264
245 264 278 293 300 313 330 325 316 311 307 304 301 301 305 310 311 312 315 317 320 325 330 333 333 331 328 324 321 318 317 315 314 313 313 312 311 310 309 307 306 305 303 302 300 299 297 296 294 292 291 289 287 286 284 283 282 280 279 278 277 276 276 276 276 276 276 275 275 274 274 273 273 272 272 272 271 270 268 267 266 265 264 263 263
234 264 279 297 315 338 349 342 328 320 318 314 309 309 317 322 325 330 334 339 344 344 341 337 332 328 325 322 321 319 319 317 316 315 314 314 312 311 310 308 306 305 303 301 300 299 297 296 294 292 290 289 287 286 284 283 282 281 280 278 277 276 276 276 277 277 277 277 276 276 275 274 273 273 274 274 273 271 269 267 266 266 265 263 262
230 272 293 312 335 360 11 11 354 345 349 334 333 343 352 355 359 1 359 357 353 346 339 334 330 328 327 325 324 322 320 319 317 316 316 315 313 312 310 308 306 305 303 302 301 300 298 297 295 293 291 289 287 285 284 283 283 282 282 281 280 279 278 278 278 278 278 278 277 276 275 275 274 274 275 274 273 272 271 269 267 267 265 264 262
161 235 315 10 30 49 51 38 27 28 29 26 30 30 29 26 19 13 5 358 349 343 339 335 332 330 329 327 325 324 322 321 320 319 317 315 314 312 311 309 308 306 305 303 303 301 300 298 296 294 292 290 288 285 284 283 284 284 284 283 283 283 282 282 281 281 280 280 279 278 277 275 274 275 275 273 273 272 271 270 268 266 265 263 262
125 120 106 93 80 78 70 54 53 59 62 58 55 49 40 29 19 10 0 353 347 342 338 335 333 331 330 329 328 327 326 324 322 320 318 317 316 315 313 312 310 309 307 306 305 303 302 300 298 295 293 291 288 285 285 285 286 286 286 286 286 286 285 284 284 283 282 281 280 279 278 276 275 275 273 272 271 271 270 269 267 266 264 263 262
107 101 97 90 81 79 80 75 73 75 73 67 58 46 34 23 13 4 356 350 345 341 339 337 336 335 335 334 333 330 328 325 323 321 320 319 318 317 316 314 313 311 309 306 305 303 302 301 299 296 293 291 288 286 286 287 288 288 289 289 288 287 286 285 284 284 282 280 280 279 278 276 275 274 272 271 271 270 269 267 265 264 263 262 261
93 91 89 87 87 88 89 87 84 81 73 63 50 36 24 16 7 359 353 348 346 345 344 343 343 342 339 337 334 331 327 325 323 322 321 320 319 317 316 314 313 311 309 306 304 303 302 302 301 298 294 291 289 288 288 289 290 290 290 289 288 287 286 285 284 283 282 281 280 279 278 276 275 273 272 272 271 270 269 266 263 261 260 260 259
89 89 91 92 92 92 92 89 84 77 67 53 37 25 16 9 2 357 354 353 352 352 351 349 346 343 339 335 332 329 326 324 323 321 320 318 317 316 315 314 313 311 309 307 306 305 304 304 303 301 297 294 292 291 290 290 290 290 289 288 288 287 286 286 285 284 283 282 281 280 278 277 276 275 274 273 271 269 268 266 263 261 259 257 257
92 91 92 93 92 90 88 84 76 65 51 37 25 18 11 6 3 1 0 359 358 356 353 349 344 340 336 333 330 328 326 324 322 320 319 319 318 317 316 315 313 312 311 309 308 307 306 305 304 302 299 297 295 293 292 291 290 289 289 289 288 288 288 287 287 285 284 283 282 280 279 277 277 276 275 273 270 268 266 265 263 261 259 257 256
94 93 93 91 89 86 81 74 62 49 36 26 20 15 11 10 8 6 5 2 359 355 350 346 342 338 335 333 330 328 327 325 324 323 322 320 319 317 316 315 313 313 312 311 310 309 308 307 306 304 302 300 298 296 295 294 294 293 292 291 291 290 290 289 288 287 285 284 282 280 279 278 277 276 275 273 270 268 266 264 262 261 260 258 257
96 95 93 89 85 80 72 62 49 38 29 23 19 17 16 14 11 9 6 2 357 352 348 344 341 338 335 334 332 331 331 329 327 325 322 320 319 318 317 316 316 316 315 315 314 312 311 310 309 307 305 304 302 301 300 299 297 296 295 294 293 292 291 290 289 287 286 286 285 283 282 281 280 278 276 274 271 267 265 264 262 261 260 258 257
95 93 89 85 80 74 65 53 41 32 27 25 23 21 19 15 12 9 5 0 355 350 348 345 341 339 338 338 336 334 332 330 327 325 324 323 322 321 321 321 321 321 320 319 317 316 314 312 311 309 307 306 304 303 301 300 299 298 296 295 294 293 292 291 290 289 289 289 288 288 287 286 284 282 279 276 272 269 266 265 263 260 259 257 256
91 89 85 82 78 70 59 45 35 31 30 29 27 23 19 16 12 8 3 358 353 350 349 346 344 343 341 339 336 334 333 332 331 330 328 326 325 324 324 324 324 324 322 321 319 318 316 314 313 311 309 307 306 305 303 302 301 299 298 296 295 294 293 291 290 289 290 289 289 288 287 286 284 283 281 278 275 271 269 267 264 261 258 256 255
89 86 83 80 74 63 48 38 34 34 34 32 29 25 21 16 12 7 2 357 354 353 351 347 345 343 340 337 336 336 336 336 334 332 329 327 327 327 328 328 328 326 325 323 322 321 319 318 316 314 312 310 308 307 305 304 302 301 299 298 297 295 293 289 287 288 289 289 288 286 286 285 283 281 279 277 274 272 270 267 265 263 260 257 254
85 82 79 73 62 48 39 35 35 37 36 33 30 25 20 15 11 7 1 357 355 353 349 347 345 341 339 339 339 339 338 337 334 331 329 330 331 331 332 331 330 329 328 327 326 324 322 320 318 315 313 312 310 309 307 306 305 303 302 300 298 295 291 287 286 287 289 289 289 289 289 288 286 284 280 276 273 271 270 268 265 263 261 259 255
80 77 71 60 46 37 34 33 35 37 35 33 29 23 18 14 11 6 0 357 354 350 348 346 344 343 343 342 340 339 338 336 334 333 333 334 335 335 334 333 333 332 331 330 328 326 323 321 318 316 315 314 312 311 310 309 308 306 304 302 299 296 292 288 286 287 289 291 292 293 293 292 290 287 282 277 274 271 269 267 265 263 261 260 257
75 69 57 44 36 31 31 32 34 34 31 28 24 19 16 14 10 4 359 356 352 349 348 346 345 346 345 342 339 338 337 336 335 337 338 338 338 337 337 337 336 336 334 332 329 326 324 322 320 318 317 315 314 313 312 311 310 308 305 304 302 299 294 289 288 289 293 295 297 298 298 295 291 286 281 276 273 271 269 266 264 263 261 259 258
66 56 45 36 29 27 29 31 31 28 25 22 17 14 14 12 6 1 357 353 351 350 348 346 347 346 343 341 340 338 337 338 339 340 340 340 339 340 340 340 339 337 335 333 330 327 325 323 321 320 319 318 317 316 315 314 312 309 306 305 303 298 293 291 292 295 299 301 303 303 302 298 292 287 282 277 273 271 270 268 265 263 261 259 257
55 47 40 33 27 26 27 28 27 23 19 15 11 10 10 8 2 358 355 352 350 349 347 348 347 345 342 341 340 339 339 341 343 342 342 342 342 342 343 342 341 338 336 334 331 329 327 325 324 323 322 321 320 319 319 317 314 310 308 306 301 297 295 296 299 303 305 306 308 307 304 302 299 295 290 284 279 275 272 270 267 264 261 258 256
46 40 35 30 25 24 24 24 22 18 14 9 4 5 6 2 358 355 352 351 349 347 348 348 345 344 343 342 341 341 343 344 345 344 344 344 344 344 345 344 342 339 337 335 333 331 329 327 326 325 324 324 324 325 323 319 315 312 310 305 300 298 299 301 306 308 309 311 312 307 303 303 301 299 296 290 285 279 275 272 268 264 261 257 255
40 33 29 26 23 21 20 20 18 14 9 3 359 360 0 357 354 352 350 348 346 347 348 346 344 344 343 343 343 344 346 347 346 346 345 345 346 347 347 345 342 340 338 336 335 333 331 329 328 328 329 330 330 329 325 319 315 312 310 305 303 302 302 306 310 311 312 315 313 303 297 299 299 298 297 292 287 281 276 274 270 266 262 258 254
35 28 23 21 20 17 17 16 14 10 4 356 353 354 355 352 349 348 347 346 345 347 347 344 344 344 345 345 345 346 349 349 348 348 347 347 348 348 347 345 343 341 340 338 336 334 333 333 332 333 334 334 334 333 327 320 315 312 310 308 307 306 305 310 312 312 314 317 313 302 294 296 299 299 298 295 290 284 278 274 270 266 262 259 256
31 24 19 17 16 13 12 11 9 5 358 350 348 349 349 347 346 345 344 343 345 347 345 344 345 346 346 346 346 349 351 351 351 350 350 350 350 350 348 346 344 343 341 339 338 336 336 336 337 337 338 337 337 335 329 323 318 315 313 312 312 309 309 313 313 311 314 317 316 308 298 296 299 300 299 296 292 287 281 276 272 268 264 259 256
27 21 17 13 11 9 7 5 3 359 352 345 343 344 344 343 343 342 341 342 345 346 343 344 346 347 346 347 348 351 353 355 354 353 352 352 352 351 348 347 346 344 342 340 339 339 338 340 340 340 341 341 340 338 332 327 322 320 318 317 315 313 314 315 313 311 312 315 316 314 308 303 303 302 299 295 292 288 283 278 274 270 267 262 257
25 19 14 10 7 4 1 358 357 353 347 341 340 342 340 339 340 339 340 342 345 344 343 345 347 347 347 348 350 353 356 357 356 355 354 353 353 351 350 348 347 345 343 342 341 340 340 342 343 344 344 344 344 342 337 333 330 327 324 321 318 317 318 316 313 312 312 315 318 316 313 311 308 304 299 294 292 288 284 278 273 268 265 261 258
21 17 10 6 3 359 356 353 351 348 343 339 339 339 336 336 337 337 339 341 343 342 343 346 347 347 348 349 351 354 357 357 357 356 355 355 354 353 351 350 348 346 345 344 343 341 342 344 346 347 348 348 347 345 341 339 337 333 328 325 322 322 321 318 315 315 317 320 320 317 315 315 313 308 303 301 298 294 288 281 274 267 261 258 256
17 13 7 3 359 355 352 350 347 344 341 338 337 336 334 334 334 336 338 339 340 341 344 347 347 347 349 350 352 355 357 357 357 357 357 356 355 354 353 351 349 347 346 345 344 343 344 347 350 350 350 351 350 348 346 344 342 338 332 328 324 324 322 321 319 318 321 323 321 319 319 321 319 313 309 307 305 301 295 286 278 270 262 256 251
15 8 4 360 355 351 349 347 345 342 339 337 335 334 333 332 332 335 336 337 339 342 344 346 347 347 349 351 352 355 357 357 357 357 358 357 356 356 354 352 350 348 347 347 346 345 347 351 352 352 352 354 353 351 350 348 346 342 337 332 326 323 321 322 324 322 324 327 324 324 326 327 324 317 311 309 309 308 303 294 288 279 265 254 246
12 5 360 356 353 349 347 345 343 340 337 334 333 331 330 330 332 334 334 335 338 341 344 346 346 347 350 351 352 354 356 356 356 356 357 357 357 357 355 353 351 349 349 348 347 347 350 353 354 354 355 357 356 354 354 352 350 346 342 337 330 327 323 324 327 327 329 330 327 330 332 330 328 325 322 320 317 314 309 303 298 290 269 249 240
7 1 356 353 350 347 345 342 339 336 333 331 329 328 329 330 331 331 331 333 337 340 344 346 346 347 350 352 353 354 355 356 356 356 357 357 357 357 356 354 352 351 351 350 349 349 352 355 356 357 358 360 359 357 358 357 354 350 345 340 337 337 333 329 332 334 336 334 334 338 338 336 339 346 346 340 333 326 319 313 307 298 270 240 230
2 357 353 349 347 345 342 339 335 332 330 329 327 326 327 327 327 328 329 331 335 339 344 345 346 347 349 352 354 354 355 356 356 357 357 358 358 358 357 356 354 353 352 351 350 351 353 356 358 359 1 3 2 1 1 2 360 354 348 345 347 351 347 340 338 341 343 341 342 346 347 352 2 4 1 356 351 347 339 329 320 309 277 233 223
358 354 350 347 346 344 341 338 334 331 329 328 326 325 324 324 325 327 328 330 334 339 343 345 345 347 350 353 354 354 356 357 358 358 358 358 358 358 358 357 356 355 354 353 352 352 354 357 0 0 2 4 5 4 4 5 5 359 354 352 355 358 357 350 345 351 352 346 348 351 355 5 10 8 8 8 7 4 359 352 342 326 292 229 217
357 353 349 347 345 344 341 337 333 330 328 327 325 323 323 324 325 325 327 330 333 339 343 344 345 347 350 353 354 355 357 359 359 359 360 360 359 360 360 359 358 356 355 354 353 354 355 358 1 1 2 4 6 7 7 9 8 4 1 1 0 2 4 1 356 360 358 353 355 355 359 7 9 9 12 11 8 11 13 12 7 359 341 193 181
355 351 347 345 344 342 340 335 331 328 328 327 325 323 323 325 325 325 327 330 333 339 343 344 344 346 349 353 355 357 359 0 1 1 1 1 1 1 1 0 360 358 357 356 355 355 356 359 2 2 2 4 7 8 9 12 12 9 7 7 9 10 10 6 360 2 0 359 2 1 1 7 11 15 19 17 16 21 25 26 24 26 46 93 133
349 345 342 341 340 339 336 331 327 326 326 326 325 324 324 325 325 326 328 331 334 339 342 342 343 345 349 353 356 358 0 1 1 1 2 2 3 3 2 2 1 0 359 358 357 356 357 359 2 3 3 4 7 8 9 12 13 13 11 9 14 18 16 14 8 0 357 358 3 6 5 9 15 23 24 20 24 29 31 33 37 42 60 84 108
342 340 339 338 337 336 332 327 324 323 324 325 324 324 325 326 326 328 330 331 333 337 340 341 342 345 349 353 357 359 1 2 1 2 3 3 4 4 3 3 2 2 1 359 359 358 358 360 3 4 4 5 8 10 10 12 14 14 12 10 16 21 18 16 13 1 356 1 7 10 11 16 23 29 26 20 26 34 34 35 43 51 65 81 95
343 341 339 337 336 335 331 326 323 321 322 322 323 325 327 328 327 329 330 330 332 336 340 341 342 345 350 354 358 360 1 2 1 3 4 4 4 5 5 4 4 3 2 1 1 359 359 0 2 5 5 5 9 12 13 13 15 15 15 13 15 20 20 15 11 6 7 12 15 15 18 24 30 32 29 25 29 39 40 41 47 52 63 79 93
351 347 344 342 340 338 333 327 323 321 320 320 322 325 327 328 327 329 329 330 332 336 340 341 342 346 350 354 358 359 1 1 2 3 5 5 5 5 6 5 5 4 3 2 2 1 1 1 2 5 7 6 9 13 14 15 16 16 17 17 16 17 21 19 13 9 11 15 20 25 27 31 34 33 30 28 34 46 51 50 48 49 57 71 89
358 355 352 349 346 342 336 330 325 322 320 319 322 326 329 328 327 329 330 331 333 337 340 341 343 347 350 354 357 359 1 1 2 3 4 5 5 5 6 7 6 6 5 4 3 3 2 1 2 5 7 8 8 12 15 16 18 18 17 18 18 16 21 24 18 12 11 13 21 27 28 31 32 31 30 30 38 52 55 51 45 45 54 62 82
2 359 356 352 348 342 336 329 324 322 320 320 324 329 331 330 328 330 331 332 334 338 341 340 342 347 350 352 356 358 1 1 2 3 4 5 5 5 6 7 8 8 6 6 4 4 4 3 2 4 7 8 9 11 14 16 19 19 18 19 20 19 19 22 22 18 13 15 22 25 26 28 28 32 33 33 42 50 48 48 47 45 48 52 74
5 360 355 349 344 338 331 326 322 320 321 323 328 331 332 331 330 332 332 333 335 339 341 340 342 347 349 351 355 358 0 1 2 3 4 5 5 5 6 7 9 9 8 8 7 6 6 5 3 4 7 8 9 11 13 15 18 20 20 20 21 22 21 21 22 22 18 17 21 24 27 29 30 36 39 38 46 50 46 50 51 45 45 53 75
3 357 351 345 340 333 326 322 320 320 323 327 331 334 334 333 333 333 334 334 337 340 340 340 342 348 350 351 354 357 360 1 1 3 4 5 6 5 6 7 9 10 10 10 10 9 8 7 5 5 6 8 10 11 12 14 16 19 21 21 21 23 24 23 22 23 23 20 20 21 24 27 32 40 44 44 48 52 52 52 54 56 58 67 75
Height
5791 5791 5792 5793 5793 5793 5794 5794 5794 5794 5794 5795 5795 5796 5796 5797 5797 5797 5798 5797 5797 5796 5796 5796 5797 5798 5798 5798 5797 5797 5796 5795 5795 5794 5794 5793 5792 5792 5791 5790 5790 5789 5789 5788 5787 5786 5786 5785 5785 5784 5784 5783 5782 5781 5781 5780 5779 5778 5778 5778 5777 5777 5776 5776 5775 5775 5774 5774 5774 5773 5773 5772 5771 5771 5771 5771 5771 5771 5771 5772 5772 5772 5772 5772 5772
5789 5791 5791 5792 5792 5792 5792 5792 5793 5793 5794 5794 5795 5795 5796 5796 5796 5797 5797 5797 5796 5796 5796 5796 5796 5797 5797 5796 5796 5795 5795 5794 5793 5793 5792 5791 5791 5790 5789 5788 5788 5787 5786 5786 5785 5784 5784 5783 5783 5782 5781 5780 5780 5779 5778 5777 5776 5776 5775 5775 5775 5774 5773 5773 5772 5772 5771 5771 5771 5770 5770 5769 5768 5768 5767 5767 5767 5767 5767 5768 5768 5768 5768 5768 5768
5789 5790 5790 5790 5791 5791 5791 5791 5792 5792 5793 5793 5794 5794 5795 5795 5796 5796 5796 5796 5796 5796 5795 5795 5795 5795 5795 5795 5794 5794 5793 5792 5792 5791 5790 5789 5789 5788 5787 5786 5786 5785 5785 5784 5783 5783 5782 5781 5780 5780 5779 5778 5777 5776 5776 5775 5774 5773 5773 5772 5772 5771 5771 5770 5769 5769 5768 5768 5767 5766 5766 5765 5765 5764 5764 5763 5763 5763 5763 5764 5764 5764 5765 5765 5765
5788 5788 5789 5789 5790 5790 5790 5790 5791 5791 5792 5793 5793 5794 5794 5795 5795 5795 5795 5795 5795 5795 5795 5795 5795 5794 5794 5793 5793 5792 5791 5790 5789 5789 5788 5787 5787 5786 5786 5785 5785 5784 5783 5782 5781 5781 5780 5779 5778 5777 5776 5775 5775 5774 5773 5772 5771 5771 5770 5769 5769 5768 5768 5767 5767 5766 5765 5764 5763 5763 5762 5762 5761 5761 5761 5760 5760 5760 5760 5760 5760 5760 5760 5760 5761
5787 5788 5788 5788 5789 5789 5788 5789 5790 5791 5792 5792 5793 5793 5794 5794 5794 5795 5795 5795 5795 5795 5794 5794 5794 5793 5792 5791 5791 5790 5789 5789 5788 5787 5787 5786 5786 5785 5785 5784 5783 5782 5781 5780 5780 5779 5778 5777 5776 5775 5774 5773 5772 5771 5770 5769 5768 5768 5767 5766 5766 5765 5765 5764 5764 5763 5762 5761 5760 5759 5759 5758 5758 5758 5758 5758 5757 5757 5756 5756 5756 5756 5756 5756 5756
5786 5787 5787 5788 5788 5788 5788 5789 5790 5791 5791 5792 5792 5793 5793 5794 5794 5794 5794 5794 5794 5794 5793 5793 5792 5791 5791 5790 5790 5789 5788 5788 5787 5787 5786 5786 5785 5784 5783 5782 5781 5780 5779 5778 5777 5776 5775 5774 5773 5772 5771 5770 5769 5768 5768 5767 5766 5765 5764 5763 5762 5762 5761 5760 5760 5759 5758 5757 5756 5755 5755 5754 5754 5754 5754 5754 5754 5754 5753 5753 5753 5752 5752 5752 5751
5786 5786 5786 5787 5788 5788 5788 5789 5790 5790 5791 5791 5792 5792 5793 5793 5793 5793 5793 5793 5793 5792 5792 5791 5791 5790 5790 5789 5789 5788 5788 5787 5787 5786 5785 5784 5783 5782 5781 5780 5779 5778 5777 5776 5775 5774 5773 5772 5771 5769 5768 5767 5766 5765 5765 5764 5763 5761 5761 5760 5759 5758 5757 5756 5756 5755 5754 5753 5752 5752 5751 5750 5750 5750 5750 5749 5750 5750 5750 5750 5749 5749 5748 5747 5746
5785 5786 5786 5786 5787 5788 5788 5789 5789 5790 5790 5791 5792 5792 5792 5793 5793 5793 5792 5792 5791 5791 5791 5790 5790 5789 5789 5789 5788 5788 5787 5786 5785 5784 5784 5783 5782 5781 5779 5778 5777 5776 5775 5774 5773 5771 5770 5769 5768 5767 5765 5764 5763 5762 5761 5760 5759 5758 5757 5756 5755 5754 5753 5752 5751 5751 5750 5749 5748 5747 5747 5746 5745 5745 5745 5745 5745 5746 5746 5746 5744 5744 5743 5742 5742
5784 5785 5786 5786 5787 5787 5788 5789 5789 5790 5790 5791 5791 5792 5792 5792 5792 5792 5791 5791 5790 5790 5790 5790 5789 5789 5789 5788 5787 5787 5786 5785 5784 5783 5782 5781 5780 5779 5778 5776 5775 5774 5772 5771 5770 5769 5767 5766 5765 5764 5762 5761 5760 5759 5757 5756 5755 5754 5753 5752 5751 5750 5749 5748 5747 5746 5746 5745 5744 5743 5743 5742 5741 5740 5740 5741 5741 5742 5742 5741 5740 5740 5740 5739 5739
5785 5785 5786 5787 5787 5787 5788 5789 5789 5790 5790 5791 5791 5791 5791 5791 5791 5791 5790 5790 5790 5790 5790 5789 5789 5789 5788 5787 5787 5786 5785 5784 5783 5782 5781 5779 5778 5777 5776 5774 5773 5771 5770 5768 5767 5766 5764 5763 5762 5760 5759 5758 5756 5755 5754 5752 5751 5750 5749 5748 5747 5747 5746 5744 5743 5742 5741 5741 5740 5739 5738 5737 5736 5735 5736 5737 5737 5737 5737 5737 5735 5735 5735 5735 5735
5785 5785 5786 5787 5787 5788 5788 5789 5789 5790 5791 5791 5791 5791 5791 5791 5791 5790 5790 5790 5790 5790 5790 5789 5789 5788 5787 5787 5786 5785 5784 5783 5781 5780 5779 5778 5776 5775 5774 5772 5771 5769 5767 5766 5764 5763 5761 5760 5758 5757 5756 5754 5753 5751 5750 5749 5747 5746 5746 5745 5744 5743 5742 5741 5740 5739 5737 5736 5736 5735 5734 5733 5731 5731 5732 5732 5732 5732 5732 5732 5731 5730 5730 5730 5730
5785 5785 5786 5787 5787 5788 5789 5789 5790 5790 5791 5791 5791 5791 5791 5791 5790 5791 5791 5791 5790 5790 5790 5789 5788 5787 5786 5785 5784 5783 5782 5781 5780 5779 5777 5776 5774 5773 5772 5770 5769 5767 5765 5763 5761 5760 5758 5756 5755 5753 5752 5750 5749 5747 5746 5745 5744 5743 5742 5741 5740 5739 5738 5737 5736 5735 5733 5732 5731 5730 5729 5728 5726 5726 5728 5727 5727 5727 5727 5727 5726 5725 5725 5725 5725
5785 5786 5786 5787 5788 5788 5789 5790 5790 5791 5791 5791 5791 5791 5791 5791 5791 5791 5791 5791 5790 5790 5789 5788 5787 5786 5785 5784 5783 5782 5781 5780 5778 5777 5776 5774 5772 5771 5769 5768 5766 5765 5763 5761 5759 5757 5755 5753 5751 5749 5748 5746 5745 5743 5742 5741 5740 5739 5738 5737 5735 5734 5733 5732 5731 5730 5729 5727 5726 5724 5724 5722 5720 5721 5722 5721 5721 5721 5721 5721 5721 5720 5720 5720 5719
5786 5786 5787 5787 5788 5789 5790 5790 5790 5791 5791 5791 5791 5791 5791 5791 5791 5791 5791 5790 5790 5789 5788 5787 5786 5785 5784 5783 5782 5781 5779 5778 5777 5775 5773 5772 5770 5769 5767 5765 5764 5762 5760 5758 5756 5754 5752 5750 5747 5746 5744 5742 5741 5740 5739 5737 5736 5735 5733 5732 5731 5730 5729 5728 5726 5725 5723 5721 5720 5718 5717 5715 5714 5715 5715 5714 5714 5715 5715 5715 5714 5714 5714 5714 5714
5786 5787 5788 5788 5789 5790 5790 5791 5791 5791 5791 5791 5791 5791 5792 5792 5791 5791 5790 5790 5789 5789 5788 5787 5785 5784 5783 5782 5780 5779 5778 5776 5775 5773 5772 5770 5768 5766 5764 5762 5761 5759 5757 5755 5753 5751 5748 5746 5744 5742 5740 5738 5737 5736 5735 5733 5732 5730 5729 5727 5726 5725 5723 5722 5721 5719 5716 5714 5713 5712 5710 5708 5707 5708 5707 5707 5707 5708 5708 5708 5708 5707 5708 5708 5709
5787 5788 5789 5789 5790 5790 5791 5791 5791 5791 5792 5792 5792 5792 5792 5792 5791 5791 5790 5790 5789 5788 5787 5786 5784 5783 5782 5780 5779 5778 5776 5775 5773 5772 5770 5768 5766 5764 5762 5760 5758 5756 5754 5751 5749 5747 5745 5743 5741 5738 5736 5735 5734 5732 5731 5729 5728 5726 5724 5722 5721 5719 5717 5716 5715 5713 5709 5708 5707 5705 5703 5701 5700 5699 5700 5701 5701 5701 5700 5700 5700 5700 5701 5701 5702
5788 5788 5789 5790 5790 5791 5791 5792 5792 5792 5792 5792 5792 5792 5792 5792 5791 5791 5790 5789 5788 5787 5786 5784 5783 5782 5781 5779 5778 5776 5775 5773 5772 5770 5768 5766 5764 5762 5760 5757 5755 5753 5750 5748 5746 5744 5742 5740 5737 5735 5733 5731 5730 5728 5727 5725 5723 5721 5719 5717 5715 5713 5711 5709 5709 5706 5703 5702 5700 5698 5696 5694 5692 5691 5693 5695 5694 5694 5693 5692 5692 5692 5693 5694 5694
5789 5789 5790 5790 5791 5791 5792 5792 5792 5792 5793 5793 5793 5793 5792 5792 5791 5790 5789 5788 5787 5786 5785 5784 5782 5781 5780 5778 5777 5775 5774 5772 5770 5768 5766 5764 5762 5759 5757 5755 5752 5750 5747 5745 5743 5741 5738 5736 5734 5732 5729 5727 5726 5724 5722 5720 5718 5716 5714 5712 5710 5707 5705 5703 5702 5700 5697 5695 5694 5692 5689 5687 5685 5685 5686 5687 5686 5686 5684 5683 5683 5684 5685 5686 5687
5789 5790 5791 5791 5792 5792 5792 5793 5793 5793 5793 5793 5793 5793 5792 5791 5791 5790 5789 5787 5786 5785 5784 5783 5782 5780 5779 5777 5776 5774 5772 5770 5768 5766 5763 5761 5759 5757 5755 5752 5750 5747 5745 5743 5740 5738 5735 5733 5731 5728 5726 5724 5721 5719 5717 5715 5713 5710 5708 5706 5704 5702 5699 5697 5695 5693 5690 5689 5687 5685 5683 5680 5679 5678 5678 5678 5678 5678 5675 5674 5675 5676 5677 5678 5680
5791 5791 5792 5792 5793 5793 5793 5793 5793 5794 5794 5794 5793 5792 5792 5791 5790 5789 5788 5787 5786 5785 5784 5782 5781 5779 5778 5776 5774 5772 5770 5768 5766 5764 5761 5759 5757 5755 5752 5750 5747 5745 5742 5740 5737 5735 5732 5730 5727 5725 5722 5720 5717 5715 5712 5710 5708 5705 5703 5700 5698 5696 5693 5691 5689 5686 5684 5682 5680 5678 5676 5674 5673 5671 5670 5669 5669 5669 5667 5666 5667 5668 5669 5670 5672
5792 5792 5793 5793 5793 5793 5794 5794 5794 5794 5794 5794 5793 5792 5791 5790 5789 5789 5788 5787 5786 5784 5783 5781 5780 5778 5776 5774 5772 5770 5768 5766 5764 5762 5759 5757 5754 5752 5750 5747 5745 5742 5740 5737 5735 5732 5730 5727 5725 5722 5719 5716 5714 5711 5708 5705 5703 5700 5697 5695 5692 5690 5687 5685 5683 5680 5678 5676 5674 5671 5669 5668 5666 5664 5663 5662 5661 5660 5659 5659 5659 5660 5661 5662 5663
5793 5793 5793 5794 5794 5794 5795 5795 5795 5795 5794 5793 5793 5792 5791 5790 5789 5789 5788 5787 5785 5784 5782 5780 5779 5777 5775 5773 5771 5769 5767 5765 5762 5759 5757 5755 5752 5750 5748 5745 5743 5740 5738 5735 5733 5730 5727 5724 5721 5718 5715 5712 5710 5707 5704 5701 5697 5695 5692 5689 5686 5683 5681 5678 5676 5674 5672 5670 5668 5665 5662 5661 5659 5657 5656 5654 5653 5652 5651 5651 5651 5651 5652 5653 5655
5794 5794 5794 5795 5795 5795 5795 5795 5795 5795 5794 5793 5793 5792 5791 5790 5789 5789 5787 5786 5784 5783 5781 5780 5778 5776 5774 5772 5770 5768 5765 5763 5760 5758 5755 5753 5750 5748 5746 5743 5741 5738 5736 5733 5730 5727 5724 5721 5717 5714 5711 5708 5705 5702 5699 5695 5692 5689 5686 5683 5680 5677 5674 5672 5670 5668 5666 5664 5661 5658 5655 5653 5651 5650 5648 5646 5645 5644 5643 5643 5643 5643 5643 5645 5646
5795 5795 5795 5795 5796 5796 5796 5795 5795 5795 5794 5793 5793 5792 5791 5790 5789 5788 5787 5785 5784 5782 5781 5779 5777 5775 5773 5771 5768 5766 5764 5761 5759 5756 5754 5751 5749 5746 5744 5741 5739 5736 5733 5730 5727 5724 5720 5717 5714 5710 5707 5704 5700 5697 5693 5690 5687 5683 5680 5677 5673 5671 5668 5667 5665 5662 5660 5657 5654 5650 5647 5644 5643 5641 5640 5638 5636 5636 5635 5634 5634 5634 5635 5636 5638
5796 5796 5796 5796 5796 5796 5796 5795 5795 5795 5794 5793 5792 5792 5791 5790 5789 5788 5786 5784 5783 5782 5780 5778 5776 5774 5772 5769 5767 5765 5763 5760 5757 5755 5752 5749 5747 5745 5742 5739 5737 5734 5730 5727 5724 5721 5717 5714 5710 5707 5703 5699 5695 5692 5688 5685 5681 5677 5674 5671 5668 5665 5663 5661 5659 5656 5653 5650 5647 5642 5639 5636 5634 5632 5631 5629 5628 5627 5626 5626 5626 5626 5627 5628 5630
5797 5797 5797 5797 5796 5796 5796 5795 5795 5794 5794 5793 5792 5792 5791 5790 5789 5787 5785 5784 5783 5781 5779 5777 5775 5773 5770 5768 5766 5764 5761 5759 5756 5753 5750 5748 5745 5743 5740 5737 5734 5731 5728 5725 5721 5718 5714 5711 5707 5703 5699 5695 5691 5687 5683 5679 5675 5671 5668 5665 5663 5661 5658 5656 5653 5650 5647 5644 5640 5635 5631 5628 5626 5624 5623 5621 5620 5619 5619 5618 5618 5618 5619 5621 5622
5798 5798 5797 5797 5797 5796 5796 5795 5795 5795 5794 5793 5792 5791 5790 5789 5788 5786 5785 5784 5782 5780 5778 5776 5774 5772 5770 5768 5765 5763 5760 5757 5754 5751 5749 5746 5744 5741 5738 5735 5732 5729 5725 5722 5718 5715 5711 5707 5703 5699 5695 5691 5686 5682 5678 5674 5669 5666 5663 5661 5659 5656 5653 5650 5647 5645 5642 5637 5633 5628 5624 5621 5619 5617 5615 5614 5613 5612 5612 5612 5612 5611 5612 5613 5614
5798 5798 5797 5797 5797 5796 5796 5796 5795 5795 5794 5793 5792 5791 5790 5789 5787 5786 5784 5783 5781 5779 5778 5776 5773 5771 5769 5767 5764 5762 5758 5755 5753 5750 5747 5745 5742 5739 5736 5733 5730 5726 5723 5720 5716 5712 5708 5704 5700 5696 5691 5687 5682 5678 5673 5668 5664 5661 5659 5657 5654 5651 5648 5645 5643 5640 5636 5631 5627 5623 5619 5617 5614 5612 5610 5609 5607 5607 5606 5606 5606 5605 5606 5606 5607
5798 5798 5798 5797 5797 5797 5796 5796 5795 5795 5794 5793 5792 5791 5790 5788 5787 5785 5784 5782 5780 5779 5777 5775 5773 5771 5768 5766 5763 5760 5757 5754 5751 5749 5746 5743 5740 5737 5734 5731 5728 5724 5721 5717 5713 5709 5705 5701 5697 5692 5688 5683 5678 5673 5668 5663 5660 5658 5655 5653 5649 5646 5643 5640 5638 5635 5631 5626 5622 5619 5617 5614 5611 5609 5607 5605 5604 5602 5601 5600 5600 5600 5600 5600 5601
5798 5798 5798 5798 5797 5797 5797 5796 5795 5795 5794 5793 5792 5791 5789 5788 5786 5785 5783 5782 5780 5778 5776 5774 5772 5770 5768 5765 5762 5759 5756 5753 5750 5747 5744 5741 5738 5735 5732 5729 5726 5722 5718 5714 5710 5706 5702 5698 5693 5688 5684 5679 5674 5669 5664 5660 5657 5654 5651 5648 5645 5642 5639 5636 5633 5630 5626 5622 5619 5617 5614 5611 5608 5606 5604 5602 5600 5598 5597 5596 5595 5594 5594 5595 5595
5799 5799 5798 5798 5797 5797 5797 5796 5795 5795 5794 5792 5791 5790 5789 5788 5786 5784 5783 5781 5779 5778 5776 5774 5771 5769 5766 5764 5760 5758 5755 5752 5749 5746 5743 5740 5737 5733 5730 5727 5724 5720 5716 5712 5708 5703 5699 5694 5690 5685 5680 5675 5670 5665 5660 5656 5653 5650 5647 5644 5641 5637 5634 5631 5628 5625 5622 5618 5616 5614 5612 5609 5605 5602 5600 5598 5596 5594 5592 5591 5590 5589 5589 5589 5590
5799 5799 5799 5798 5798 5797 5796 5796 5795 5794 5793 5792 5791 5790 5789 5787 5785 5784 5782 5781 5779 5777 5775 5773 5770 5768 5765 5762 5759 5757 5754 5751 5748 5744 5741 5738 5735 5732 5729 5725 5722 5717 5713 5709 5705 5701 5696 5692 5687 5682 5677 5672 5667 5661 5657 5653 5650 5646 5643 5639 5636 5633 5630 5627 5624 5620 5618 5615 5613 5610 5608 5605 5602 5598 5595 5593 5591 5589 5587 5586 5585 5584 5584 5585 5585
5799 5799 5799 5798 5797 5797 5796 5796 5795 5794 5793 5792 5791 5790 5788 5787 5785 5783 5782 5780 5778 5776 5774 5772 5769 5767 5764 5761 5758 5756 5753 5749 5746 5743 5740 5737 5734 5730 5727 5723 5719 5715 5711 5707 5703 5699 5694 5690 5685 5679 5674 5669 5663 5658 5654 5651 5647 5643 5639 5635 5632 5629 5626 5623 5619 5616 5614 5612 5609 5607 5603 5601 5598 5595 5591 5587 5585 5583 5581 5580 5580 5579 5579 5579 5580
5799 5799 5799 5798 5797 5797 5796 5795 5795 5794 5793 5792 5790 5789 5788 5786 5785 5783 5781 5779 5777 5776 5774 5771 5769 5766 5763 5760 5757 5754 5751 5748 5745 5742 5739 5736 5732 5729 5725 5721 5717 5713 5709 5705 5701 5697 5692 5688 5683 5677 5672 5666 5661 5656 5652 5648 5644 5640 5636 5633 5629 5626 5623 5620 5616 5613 5611 5608 5606 5603 5599 5596 5593 5590 5587 5583 5580 5578 5575 5574 5573 5573 5574 5574 5575
5800 5799 5799 5798 5797 5797 5796 5795 5794 5794 5792 5791 5790 5789 5788 5786 5784 5782 5780 5778 5777 5775 5773 5770 5768 5765 5762 5759 5756 5753 5750 5747 5744 5741 5738 5734 5731 5727 5724 5720 5716 5712 5708 5703 5699 5695 5690 5686 5681 5676 5670 5664 5659 5654 5650 5646 5642 5638 5634 5630 5627 5624 5620 5616 5613 5610 5608 5605 5603 5600 5596 5592 5589 5585 5582 5578 5575 5572 5569 5567 5567 5567 5567 5568 5570
5800 5799 5799 5798 5797 5797 5796 5795 5794 5793 5792 5791 5790 5788 5787 5785 5784 5782 5780 5778 5776 5774 5772 5769 5767 5764 5762 5758 5755 5752 5749 5746 5743 5740 5736 5733 5730 5726 5722 5718 5714 5710 5706 5702 5698 5693 5689 5684 5679 5674 5669 5663 5657 5652 5648 5644 5640 5636 5633 5629 5625 5621 5617 5613 5610 5608 5605 5603 5601 5597 5593 5589 5585 5581 5578 5574 5570 5567 5564 5562 5561 5561 5561 5563 5565
5800 5799 5799 5798 5797 5797 5796 5795 5794 5793 5792 5790 5789 5788 5786 5785 5783 5781 5779 5777 5775 5773 5771 5768 5766 5763 5761 5758 5755 5752 5749 5745 5742 5739 5735 5732 5728 5725 5721 5717 5713 5709 5705 5701 5697 5692 5688 5683 5678 5673 5668 5662 5656 5652 5647 5643 5639 5635 5631 5627 5622 5618 5614 5610 5608 5605 5603 5601 5598 5595 5591 5587 5583 5579 5574 5570 5567 5563 5560 5558 5557 5556 5556 5557 5560
5800 5799 5799 5798 5797 5796 5795 5794 5793 5792 5791 5790 5789 5787 5786 5784 5782 5780 5778 5776 5774 5773 5770 5768 5765 5763 5760 5757 5754 5751 5748 5745 5741 5738 5734 5731 5727 5723 5720 5716 5711 5707 5703 5699 5695 5691 5687 5682 5677 5672 5666 5661 5655 5650 5646 5641 5637 5633 5628 5624 5619 5615 5611 5608 5606 5603 5601 5599 5597 5594 5589 5585 5581 5576 5572 5568 5564 5561 5558 5556 5554 5552 5552 5553 5556
5800 5799 5798 5798 5797 5796 5795 5794 5793 5792 5791 5789 5788 5786 5785 5783 5781 5780 5778 5776 5774 5772 5770 5767 5764 5762 5759 5756 5753 5750 5747 5744 5741 5737 5733 5730 5726 5722 5719 5715 5710 5706 5702 5698 5694 5690 5686 5681 5677 5671 5666 5660 5655 5649 5644 5640 5635 5630 5625 5620 5615 5611 5608 5606 5604 5602 5599 5597 5595 5592 5588 5583 5579 5574 5570 5567 5563 5560 5556 5554 5552 5550 5550 5551 5553
5800 5799 5798 5797 5797 5796 5795 5794 5793 5791 5790 5789 5787 5785 5784 5782 5781 5779 5777 5775 5773 5771 5769 5766 5763 5761 5758 5756 5753 5749 5746 5743 5740 5736 5732 5729 5725 5722 5718 5714 5709 5705 5701 5697 5693 5689 5685 5681 5676 5671 5666 5661 5655 5650 5645 5640 5635 5629 5623 5617 5613 5609 5606 5604 5603 5600 5598 5596 5594 5592 5588 5583 5578 5574 5570 5566 5563 5559 5556 5553 5551 5550 5549 5550 5552
5799 5799 5798 5797 5796 5795 5794 5793 5792 5790 5789 5788 5786 5784 5783 5782 5780 5778 5776 5774 5772 5770 5768 5765 5763 5760 5758 5755 5752 5749 5746 5742 5739 5735 5732 5728 5724 5721 5717 5713 5709 5704 5700 5696 5692 5688 5684 5680 5676 5671 5666 5661 5656 5651 5646 5641 5636 5630 5623 5616 5612 5608 5604 5603 5602 5600 5598 5596 5594 5592 5588 5583 5578 5574 5571 5567 5563 5559 5556 5552 5551 5550 5550 5550 5551
5799 5798 5797 5796 5795 5794 5793 5792 5791 5789 5788 5787 5785 5784 5782 5781 5779 5777 5775 5774 5772 5770 5767 5764 5762 5759 5757 5754 5752 5748 5745 5741 5738 5734 5731 5727 5724 5720 5716 5712 5708 5704 5700 5696 5692 5688 5684 5680 5676 5671 5667 5662 5657 5652 5647 5642 5637 5630 5624 5618 5612 5607 5603 5602 5601 5599 5598 5596 5594 5591 5587 5583 5579 5575 5572 5568 5563 5559 5556 5554 5552 5551 5550 5550 5551
5798 5797 5796 5795 5794 5793 5792 5791 5790 5788 5787 5786 5784 5783 5781 5780 5778 5776 5774 5773 5771 5768 5766 5763 5761 5759 5756 5754 5751 5748 5744 5741 5737 5734 5730 5727 5723 5719 5716 5711 5707 5703 5699 5695 5691 5687 5683 5680 5675 5671 5666 5662 5657 5652 5647 5643 5637 5631 5624 5619 5614 5608 5604 5602 5601 5600 5598 5596 5594 5591 5587 5583 5579 5576 5573 5569 5565 5561 5558 5556 5554 5553 5552 5552 5553
5798 5797 5795 5794 5793 5792 5791 5790 5788 5787 5786 5785 5783 5782 5780 5779 5777 5775 5773 5771 5769 5767 5765 5763 5761 5758 5756 5753 5750 5747 5743 5740 5737 5733 5730 5726 5723 5719 5715 5711 5707 5703 5699 5695 5691 5687 5683 5680 5676 5672 5667 5662 5658 5652 5646 5641 5636 5630 5625 5620 5616 5610 5606 5603 5602 5600 5598 5596 5594 5591 5588 5584 5580 5577 5574 5571 5567 5563 5561 5560 5558 5557 5556 5556 5557
5797 5795 5794 5793 5792 5791 5790 5789 5787 5786 5785 5783 5782 5780 5779 5777 5776 5774 5772 5770 5768 5767 5765 5763 5760 5758 5755 5753 5750 5746 5743 5740 5737 5733 5729 5725 5722 5719 5715 5711 5707 5703 5699 5696 5691 5687 5683 5680 5676 5672 5668 5663 5658 5652 5646 5641 5636 5630 5625 5621 5617 5611 5607 5605 5603 5601 5598 5596 5594 5591 5589 5585 5582 5579 5576 5573 5570 5567 5566 5564 5562 5561 5560 5560 5561
5796 5794 5793 5792 5791 5790 5789 5787 5786 5785 5784 5782 5781 5779 5778 5776 5775 5773 5771 5770 5768 5766 5764 5762 5760 5757 5754 5751 5749 5746 5743 5739 5736 5733 5729 5725 5722 5718 5715 5711 5707 5703 5699 5695 5691 5687 5684 5680 5677 5673 5669 5664 5659 5654 5648 5643 5638 5632 5627 5623 5617 5613 5609 5607 5605 5602 5599 5597 5595 5592 5590 5587 5584 5581 5579 5576 5574 5571 5569 5568 5566 5565 5565 5564 5565
5794 5793 5792 5791 5790 5789 5787 5786 5785 5783 5782 5781 5780 5778 5777 5775 5773 5772 5770 5769 5767 5765 5763 5761 5759 5756 5753 5751 5748 5745 5742 5739 5736 5732 5729 5725 5721 5718 5715 5711 5707 5703 5699 5695 5691 5687 5683 5680 5677 5673 5669 5665 5660 5655 5650 5645 5639 5634 5629 5624 5620 5616 5612 5609 5607 5605 5602 5599 5596 5594 5592 5589 5586 5584 5582 5580 5578 5575 5573 5571 5570 5569 5568 5568 5568
5793 5792 5791 5790 5789 5788 5786 5785 5783 5782 5781 5780 5778 5777 5775 5774 5772 5771 5769 5768 5766 5765 5762 5760 5758 5755 5752 5750 5748 5745 5742 5739 5736 5732 5728 5725 5721 5718 5715 5711 5707 5703 5699 5695 5691 5687 5684 5680 5677 5673 5670 5665 5661 5656 5651 5647 5642 5637 5632 5627 5623 5619 5615 5611 5609 5607 5604 5601 5598 5595 5593 5590 5588 5586 5585 5583 5581 5578 5576 5575 5574 5573 5572 5571 5571
5792 5791 5790 5789 5787 5786 5785 5784 5782 5781 5780 5778 5777 5776 5774 5773 5771 5770 5769 5767 5765 5764 5762 5760 5757 5755 5752 5750 5747 5745 5742 5739 5735 5732 5728 5725 5721 5718 5715 5711 5707 5703 5699 5696 5692 5688 5684 5680 5677 5673 5670 5666 5662 5657 5653 5648 5644 5639 5635 5630 5626 5621 5618 5614 5611 5608 5606 5603 5600 5597 5595 5593 5591 5589 5588 5586 5584 5582 5580 5578 5577 5576 5575 5574 5575
5791 5790 5788 5787 5786 5785 5784 5782 5781 5780 5778 5777 5776 5775 5773 5772 5770 5769 5768 5766 5765 5763 5761 5759 5757 5754 5751 5749 5747 5744 5741 5738 5735 5732 5728 5725 5721 5718 5715 5711 5708 5704 5700 5696 5692 5688 5684 5680 5677 5674 5670 5667 5662 5658 5654 5650 5646 5642 5638 5633 5629 5625 5621 5618 5614 5611 5608 5605 5602 5600 5597 5596 5594 5592 5590 5589 5586 5585 5584 5582 5580 5579 5578 5577 5577
5790 5789 5787 5786 5785 5784 5783 5781 5780 5778 5777 5776 5775 5773 5772 5771 5769 5768 5767 5765 5764 5762 5760 5758 5756 5753 5751 5748 5746 5744 5741 5738 5735 5732 5728 5725 5721 5718 5715 5711 5708 5704 5700 5697 5693 5689 5685 5681 5678 5674 5671 5668 5664 5660 5656 5652 5648 5644 5640 5636 5632 5628 5624 5620 5617 5613 5610 5607 5605 5602 5599 5598 5596 5594 5593 5591 5589 5588 5587 5585 5584 5583 5582 5581 5581